GW1785 Weather Reports


Display with metric or nautical units.
time (UTC)temp
F
wind
direction
speed
MPH
gust
MPH
rain 1hr
in
rain 24hr
in
rain mn
in
humidity
%
barometer
mb
20260504160103 51 301 5.0 11.0 0.00 0.00 0.00 51 1016.1
20260504150112 49 312 5.0 14.0 0.00 0.00 0.00 58 1013.8
20260504140111 46 287 3.0 6.0 0.00 0.00 0.00 65 1016.4
20260504081607 50 11 3.0 10.0 0.00 0.00 0.00 50 1016.1
20260504060123 54 60 7.0 17.0 0.00 0.00 0.00 43 1012.3
20260504050114 56 49 2.0 7.0 0.00 0.00 0.00 41 1010.5
20260504044558 56 49 4.0 9.0 0.00 0.00 0.00 42 1010.1
20260504043109 57 48 2.0 6.0 0.00 0.00 0.00 41 1009.8
20260504041557 57 71 3.0 7.0 0.00 0.00 0.00 39 1009.5
20260504040106 57 71 2.0 5.0 0.00 0.00 0.00 36 1009.3
20260504034602 54 29 2.0 5.0 0.00 0.00 0.00 37 1009.0
20260504033105 56 0 0.0 4.0 0.00 0.00 0.00 35 1008.4
20260504031604 56 57 0.0 3.0 0.00 0.00 0.00 33 1008.1
20260504030100 59 0 0.0 2.0 0.00 0.00 0.00 30 1007.8
20260504024601 63 0 0.0 2.0 0.00 0.00 0.00 30 1007.6
20260504023058 66 46 2.0 5.0 0.00 0.00 0.00 26 1007.4
20260504021600 67 46 2.0 8.0 0.00 0.00 0.00 26 1007.5
20260504020058 69 31 2.0 8.0 0.00 0.00 0.00 25 1007.4
20260504014603 73 42 3.0 9.0 0.00 0.00 0.00 22 1007.3
20260504013112 73 45 6.0 15.0 0.00 0.00 0.00 21 1007.4
20260504011559 75 306 5.0 11.0 0.00 0.00 0.00 18 1007.4
20260504010115 75 311 7.0 12.0 0.00 0.00 0.00 18 1007.5
20260504004600 75 317 5.0 11.0 0.00 0.00 0.00 19 1007.7
20260504003058 76 311 6.0 12.0 0.00 0.00 0.00 20 1007.9
20260504001603 76 333 6.0 13.0 0.00 0.00 0.00 19 1007.9
20260504000059 75 345 4.0 11.0 0.00 0.00 0.00 18 1007.9
20260503234557 76 302 6.0 23.0 0.00 0.00 0.00 20 1008.1
20260503233103 76 323 5.0 11.0 0.00 0.00 0.00 20 1008.1
20260503231602 75 316 8.0 12.0 0.00 0.00 0.00 21 1008.2
20260503230058 76 323 6.0 11.0 0.00 0.00 0.00 19 1008.4
20260503224557 75 328 9.0 16.0 0.00 0.00 0.00 19 1008.6
20260503223059 76 327 5.0 17.0 0.00 0.00 0.00 18 1008.9
20260503221601 75 340 9.0 15.0 0.00 0.00 0.00 18 1009.1
20260503220105 75 293 7.0 15.0 0.00 0.00 0.00 18 1009.3
20260503214559 75 333 8.0 14.0 0.00 0.00 0.00 19 1009.5
20260503213057 75 321 6.0 14.0 0.00 0.00 0.00 18 1009.7
20260503211559 75 257 6.0 18.0 0.00 0.00 0.00 17 1009.9
20260503210059 74 333 8.0 13.0 0.00 0.00 0.00 19 1010.1
20260503204609 74 321 8.0 17.0 0.00 0.00 0.00 19 1010.4
20260503203107 74 302 5.0 13.0 0.00 0.00 0.00 21 1010.6
20260503201558 73 321 8.0 18.0 0.00 0.00 0.00 21 1010.8
20260503200057 73 17 8.0 15.0 0.00 0.00 0.00 22 1011.0
20260503194622 72 279 8.0 12.0 0.00 0.00 0.00 22 1011.2
20260503193100 72 311 9.0 18.0 0.00 0.00 0.00 26 1011.3
20260503191604 71 312 7.0 15.0 0.00 0.00 0.00 25 1011.8
20260503190108 70 355 4.0 16.0 0.00 0.00 0.00 27 1011.9
20260503184601 70 342 8.0 18.0 0.00 0.00 0.00 27 1012.1
20260503183106 70 352 2.0 13.0 0.00 0.00 0.00 27 1012.2
20260503181600 69 309 7.0 15.0 0.00 0.00 0.00 27 1012.4
20260503180108 70 327 9.0 16.0 0.00 0.00 0.00 27 1012.4
20260503174559 69 327 7.0 14.0 0.00 0.00 0.00 28 1012.7
20260503173201 68 322 8.0 15.0 0.00 0.00 0.00 29 1012.9
20260503171600 67 317 8.0 15.0 0.00 0.00 0.00 30 1013.1